Regional Weather Roundup
Issued by NWS

Home | Current Version | Previous Version | Graphics & Text | Print | Product List | Glossary On
Versions: 1 2 3 4 5 6 7 8 9 10 11 12 13 14 15 16 17 18 19 20 21 22 23 24 25 26 27 28 29 30 31 32 33 34 35 36 37 38 39 40 41 42 43 44 45 46 47 48 49 50
000
ASUS43 KBIS 050310
RWRND

NORTH DAKOTA REGIONAL WEATHER ROUNDUP
NATIONAL WEATHER SERVICE BISMARCK ND
1000 PM CDT FRI SEP 04 2015

NOTE: "FAIR" INDICATES FEW OR NO CLOUDS BELOW 12,000 FEET WITH NO
SIGNIFICANT WEATHER AND/OR OBSTRUCTIONS TO VISIBILITY.


NDZ001>003-009>011-017-050400-
NORTHWEST NORTH DAKOTA

CITY           SKY/WX    TMP DP  RH WIND       PRES   REMARKS
WILLISTON      CLOUDY    65  56  72 NE15      29.92R
MINOT          CLOUDY    62  58  86 N12       29.89R
MINOT AFB      CLOUDY    61  61 100 N9        29.89R
$$

NDZ018>021-031>035-040>046-050400-
SOUTHWEST NORTH DAKOTA

CITY           SKY/WX    TMP DP  RH WIND       PRES   REMARKS
BISMARCK       CLEAR     75  69  81 NE7       29.81R
DICKINSON      PTCLDY    64  60  87 NE14      29.85R
GARRISON         N/A     66  60  81 NE15      29.87R
HETTINGER ARPT CLEAR     77  55  46 E14       29.82R
$$

NDZ004>008-012>016-024-026-027-054-050400-
NORTHEAST NORTH DAKOTA

CITY           SKY/WX    TMP DP  RH WIND       PRES   REMARKS
GRAND FORKS    PTCLDY    67  66  97 N3        29.83R
GRND FRKS AFB  MOCLDY    65  65  98 N5        29.84S
DEVILS LAKE    CLEAR     68  63  83 NE6       29.85S
$$

NDZ022-023-025-028>030-036>039-047>053-050400-
SOUTHEAST NORTH DAKOTA

CITY           SKY/WX    TMP DP  RH WIND       PRES   REMARKS
FARGO          MOCLDY    76  72  87 SE7       29.81S
JAMESTOWN      CLEAR     70  68  93 SE3       29.83R
$$



USA.gov is the U.S. government's official web portal to all federal, state and local government web resources and services.